Muskegon, MI

5:24 AM EDT on April 24, 2018 (GMT -0400)
Muskegon County

Weather History for KMKG - September, 2013

Change the Weather History Date:

Sunday, September 22, 2013

  Actual Average Record
Temperature  
Mean Temperature 52 °F 60 °F  
Max Temperature 58 °F 69 °F 90 °F (2017)
Min Temperature 46 °F 50 °F 31 °F (1976)
Degree Days  
Heating Degree Days 13 6  
Month to date heating degree days 65 79  
Since 1 July heating degree days 100 109  
Cooling Degree Days 0 1  
Month to date cooling degree days 75 49  
Year to date cooling degree days 614 556  
Growing Degree Days 2 (Base 50)    
Moisture  
Dew Point 41 °F    
Average Humidity 69    
Maximum Humidity 82    
Minimum Humidity 55    
Precipitation  
Precipitation 0.00 in 0.13 in 2.62 in (1988)
Month to date precipitation 1.53 2.85  
Year to date precipitation 32.78 23.43  
Snow  
Snow 0.00 in 0.00 in T in (1983)
Month to date snowfall 0.0 0.0  
Since 1 July snowfall 0.0 0.0  
Since 1 September snowfall 0.0 0.0  
Snow Depth 0.00 in    
Sea Level Pressure  
Sea Level Pressure 30.04 in    
Wind  
Wind Speed 5 mph (NE)    
Max Wind Speed 12 mph    
Max Gust Speed 14 mph    
Visibility 10 miles    
Events      
T = Trace of Precipitation, MM = Missing Value Source: NWS Daily Summary

Daily Weather History Graph

Daily Weather History Graph

Search for Another Location

Airport or City:

Astronomy

Sep. 22, 2013 Rise Set
Actual Time 7:32 AM EDT 7:41 PM EDT
Civil Twilight 7:04 AM EDT 8:10 PM EDT
Nautical Twilight 6:30 AM EDT 8:43 PM EDT
Astronomical Twilight 5:56 AM EDT 9:17 PM EDT
Moon 9:24 PM EDT (9/22) 10:58 AM EDT (9/22)
Length of Visible Light 13h 06m
Length of Day
12h 09m
Waning Gibbous, 89% of the Moon is Illuminated
Sep 22
Waning Gibbous
Sep 26
Last Quarter
Oct 4
New
Oct 11
First Quarter
Oct 18
Full

Hourly Weather History & Observations

Time (EDT) Temp. Dew Point Humidity Pressure Visibility Wind Dir Wind Speed Gust Speed Precip Events Conditions
12:55 AM 55.0 °F 45.0 °F 69% 29.94 in 10.0 mi North 6.9 mph - N/A   Overcast
1:55 AM 55.0 °F 43.0 °F 64% 29.95 in 10.0 mi North 6.9 mph - N/A   Overcast
2:55 AM 51.1 °F 42.1 °F 71% 29.96 in 10.0 mi NNE 4.6 mph - N/A   Clear
3:55 AM 51.1 °F 43.0 °F 74% 29.97 in 10.0 mi Calm Calm - N/A   Mostly Cloudy
4:55 AM 52.0 °F 43.0 °F 71% 29.98 in 10.0 mi NNE 5.8 mph - N/A   Overcast
5:55 AM 50.0 °F 43.0 °F 77% 30.00 in 10.0 mi Calm Calm - N/A   Mostly Cloudy
6:55 AM 48.0 °F 41.0 °F 77% 30.01 in 10.0 mi NE 3.5 mph - N/A   Scattered Clouds
7:55 AM 46.9 °F 41.0 °F 80% 30.02 in 10.0 mi Calm Calm - N/A   Partly Cloudy
8:55 AM 50.0 °F 42.1 °F 74% 30.04 in 10.0 mi NE 3.5 mph - N/A   Overcast
9:55 AM 52.0 °F 39.9 °F 63% 30.06 in 10.0 mi ENE 4.6 mph - N/A   Overcast
10:55 AM 54.0 °F 41.0 °F 62% 30.08 in 10.0 mi NE 5.8 mph - N/A   Overcast
11:55 AM 55.0 °F 41.0 °F 59% 30.09 in 10.0 mi NNE 6.9 mph - N/A   Overcast
12:55 PM 55.9 °F 41.0 °F 57% 30.08 in 10.0 mi North 9.2 mph - N/A   Overcast
1:55 PM 57.0 °F 42.1 °F 57% 30.07 in 10.0 mi North 8.1 mph - N/A   Overcast
2:55 PM 57.0 °F 42.1 °F 57% 30.07 in 10.0 mi NE 8.1 mph - N/A   Overcast
3:55 PM 57.0 °F 41.0 °F 55% 30.06 in 10.0 mi North 6.9 mph - N/A   Overcast
4:55 PM 55.9 °F 41.0 °F 57% 30.06 in 10.0 mi North 6.9 mph - N/A   Overcast
5:55 PM 55.0 °F 41.0 °F 59% 30.06 in 10.0 mi NNE 5.8 mph - N/A   Overcast
6:55 PM 54.0 °F 41.0 °F 62% 30.07 in 10.0 mi ENE 6.9 mph - N/A   Overcast
7:55 PM 53.1 °F 39.0 °F 59% 30.08 in 10.0 mi North 5.8 mph - N/A   Overcast
8:55 PM 53.1 °F 41.0 °F 64% 30.08 in 10.0 mi ENE 4.6 mph - N/A   Overcast
9:55 PM 53.1 °F 41.0 °F 64% 30.09 in 10.0 mi East 3.5 mph - N/A   Overcast
10:55 PM 52.0 °F 41.0 °F 66% 30.10 in 10.0 mi East 3.5 mph - N/A   Overcast
11:55 PM 48.0 °F 39.9 °F 74% 30.10 in 10.0 mi ENE 3.5 mph - N/A   Partly Cloudy